TimeEST,TemperatureF,Dew PointF,Humidity,Sea Level PressureIn,VisibilityMPH,Wind Direction,Wind SpeedMPH,Gust SpeedMPH,PrecipitationIn,Events,Conditions,WindDirDegrees,DateUTC
12:02 AM,30.2,23.0,75,29.45,5.0,West,20.7,27.6,N/A,Snow,Light Snow,280,2011-01-07 05:02:00
12:22 AM,30.2,23.0,75,29.45,4.0,West,18.4,32.2,N/A,Snow,Light Snow,280,2011-01-07 05:22:00
12:42 AM,30.2,23.0,75,29.43,4.0,West,23.0,32.2,N/A,Snow,Light Snow,280,2011-01-07 05:42:00
1:02 AM,28.4,23.0,80,29.42,4.0,West,19.6,26.5,N/A,Snow,Light Snow,280,2011-01-07 06:02:00
1:22 AM,28.4,23.0,80,29.42,3.0,West,18.4,26.5,N/A,Snow,Light Snow,280,2011-01-07 06:22:00
1:42 AM,28.4,23.0,80,29.42,3.0,West,16.1,33.4,N/A,Snow,Light Snow,280,2011-01-07 06:42:00
2:03 AM,28.4,23.0,80,29.41,1.8,West,20.7,36.8,N/A,Snow,Light Snow,280,2011-01-07 07:03:00
2:22 AM,28.4,21.2,74,29.39,2.5,West,28.8,40.3,N/A,Snow,Light Snow,280,2011-01-07 07:22:00
2:42 AM,28.4,23.0,80,29.39,1.2,West,23.0,36.8,N/A,Snow,Light Snow,280,2011-01-07 07:42:00
3:03 AM,28.4,21.2,74,29.40,1.2,West,34.5,49.5,N/A,Snow,Light Snow,280,2011-01-07 08:03:00
3:22 AM,28.4,19.4,69,29.39,4.0,West,33.4,48.3,N/A,Snow,Light Snow,280,2011-01-07 08:22:00
3:42 AM,26.6,19.4,74,29.40,4.0,WNW,20.7,36.8,N/A,Snow,Light Snow,290,2011-01-07 08:42:00
4:02 AM,26.6,19.4,74,29.40,3.0,WNW,20.7,35.7,N/A,Snow,Light Snow,290,2011-01-07 09:02:00
4:22 AM,26.6,19.4,74,29.39,1.8,WNW,21.9,34.5,N/A,Snow,Light Snow,290,2011-01-07 09:22:00
4:42 AM,26.6,19.4,74,29.37,3.0,WNW,23.0,42.6,N/A,Snow,Light Snow,300,2011-01-07 09:42:00
5:22 AM,26.6,19.4,74,29.35,5.0,WNW,32.2,51.8,N/A,Snow,Light Snow,290,2011-01-07 10:22:00
5:42 AM,26.6,17.6,69,29.35,10.0,WNW,39.1,54.1,N/A,,Scattered Clouds,290,2011-01-07 10:42:00
6:02 AM,26.6,19.4,74,29.35,2.5,WNW,32.2,43.7,N/A,Snow,Light Snow,290,2011-01-07 11:02:00
6:22 AM,24.8,19.4,80,29.34,2.0,WNW,31.1,46.0,N/A,Snow,Light Snow,290,2011-01-07 11:22:00
6:42 AM,26.6,17.6,69,29.33,4.0,West,34.5,51.8,N/A,Snow,Light Snow,280,2011-01-07 11:42:00
7:02 AM,26.6,19.4,74,29.32,2.5,WNW,36.8,48.3,N/A,Snow,Light Snow,290,2011-01-07 12:02:00
7:22 AM,26.6,19.4,74,29.33,10.0,WNW,32.2,42.6,N/A,,Scattered Clouds,290,2011-01-07 12:22:00
7:42 AM,26.6,19.4,74,29.35,5.0,West,27.6,42.6,N/A,,Haze,280,2011-01-07 12:42:00
8:02 AM,26.6,19.4,74,29.35,3.0,West,26.5,38.0,N/A,Snow,Light Snow,280,2011-01-07 13:02:00
8:22 AM,26.6,21.2,80,29.36,3.0,West,25.3,36.8,N/A,Snow,Light Snow,280,2011-01-07 13:22:00
8:42 AM,26.6,21.2,80,29.36,2.5,West,20.7,33.4,N/A,Snow,Light Snow,270,2011-01-07 13:42:00
9:02 AM,28.4,21.2,74,29.37,5.0,West,15.0,28.8,N/A,Snow,Light Snow,270,2011-01-07 14:02:00
9:22 AM,28.4,21.2,74,29.37,10.0,WSW,9.2,-,N/A,,Scattered Clouds,240,2011-01-07 14:22:00
9:42 AM,30.2,19.4,64,29.36,10.0,West,19.6,28.8,N/A,,Scattered Clouds,280,2011-01-07 14:42:00
10:02 AM,30.2,21.2,69,29.36,7.0,West,17.3,25.3,N/A,Snow,Light Snow,280,2011-01-07 15:02:00
10:22 AM,30.2,23.0,75,29.37,4.0,West,15.0,28.8,N/A,Snow,Light Snow,280,2011-01-07 15:22:00
10:42 AM,30.2,23.0,75,29.36,7.0,West,13.8,19.6,N/A,Snow,Light Snow,280,2011-01-07 15:42:00
11:02 AM,32.0,21.2,64,29.34,10.0,West,12.7,26.5,N/A,,Scattered Clouds,270,2011-01-07 16:02:00
11:22 AM,32.0,21.2,64,29.33,10.0,West,24.2,31.1,N/A,,Scattered Clouds,280,2011-01-07 16:22:00
11:42 AM,32.0,23.0,69,29.32,5.0,West,21.9,31.1,N/A,Snow,Light Snow,280,2011-01-07 16:42:00
12:02 PM,32.0,24.8,75,29.32,3.0,West,19.6,35.7,N/A,Snow,Light Snow,280,2011-01-07 17:02:00
12:22 PM,32.0,24.8,75,29.31,4.0,West,16.1,23.0,N/A,Snow,Light Snow,270,2011-01-07 17:22:00
12:43 PM,32.0,24.8,75,29.29,5.0,West,11.5,16.1,N/A,Snow,Light Snow,270,2011-01-07 17:43:00
1:02 PM,32.0,23.0,69,29.28,10.0,West,15.0,21.9,N/A,,Mostly Cloudy,270,2011-01-07 18:02:00
1:22 PM,32.0,23.0,69,29.27,10.0,West,11.5,23.0,N/A,,Scattered Clouds,260,2011-01-07 18:22:00
1:42 PM,32.0,23.0,69,29.27,10.0,West,15.0,23.0,N/A,,Scattered Clouds,270,2011-01-07 18:42:00
2:02 PM,32.0,23.0,69,29.27,7.0,West,13.8,23.0,N/A,Snow,Light Snow,270,2011-01-07 19:02:00
2:22 PM,32.0,23.0,69,29.26,10.0,West,15.0,21.9,N/A,,Clear,270,2011-01-07 19:22:00
2:42 PM,32.0,23.0,69,29.26,5.0,West,15.0,26.5,N/A,Snow,Light Snow,270,2011-01-07 19:42:00
3:02 PM,32.0,24.8,75,29.27,4.0,West,15.0,23.0,N/A,Snow,Light Snow,260,2011-01-07 20:02:00
3:22 PM,32.0,24.8,75,29.27,7.0,WSW,8.1,17.3,N/A,,Mostly Cloudy,250,2011-01-07 20:22:00
3:42 PM,32.0,24.8,75,29.27,7.0,West,10.4,17.3,N/A,Snow,Light Snow,270,2011-01-07 20:42:00
4:02 PM,32.0,24.8,75,29.27,7.0,West,10.4,-,N/A,Snow,Light Snow,270,2011-01-07 21:02:00
4:22 PM,32.0,24.8,75,29.27,5.0,West,8.1,-,N/A,Snow,Light Snow,270,2011-01-07 21:22:00
4:42 PM,30.2,26.6,86,29.28,1.5,West,6.9,-,N/A,Snow,Light Snow,270,2011-01-07 21:42:00
5:02 PM,30.2,26.6,86,29.29,1.2,Calm,Calm,-,N/A,Snow,Light Snow,0,2011-01-07 22:02:00
5:43 PM,30.2,28.4,93,29.29,1.8,Calm,Calm,-,N/A,Snow,Light Snow,0,2011-01-07 22:43:00
6:02 PM,28.4,28.4,100,29.30,1.5,Calm,Calm,-,N/A,Snow,Light Snow,0,2011-01-07 23:02:00
6:24 PM,30.2,28.4,93,29.30,1.2,Calm,Calm,-,0.01,Snow,Light Snow,0,2011-01-07 23:24:00
6:42 PM,30.2,28.4,93,29.30,1.2,Calm,Calm,-,0.02,Snow,Snow,0,2011-01-07 23:42:00
7:02 PM,30.2,28.4,93,29.31,2.0,Calm,Calm,-,N/A,Snow,Light Snow,0,2011-01-08 00:02:00
7:22 PM,30.2,28.4,93,29.30,4.0,West,10.4,-,N/A,Snow,Light Snow,260,2011-01-08 00:22:00
7:42 PM,30.2,26.6,86,29.31,1.5,West,12.7,20.7,N/A,Snow,Light Snow,260,2011-01-08 00:42:00
8:02 PM,30.2,28.4,93,29.32,1.0,West,13.8,18.4,0.01,Snow,Light Snow,280,2011-01-08 01:02:00
8:24 PM,28.4,24.8,86,29.33,0.8,NW,15.0,27.6,0.01,Snow,Snow,310,2011-01-08 01:24:00
8:42 PM,28.4,23.0,80,29.34,3.0,WNW,5.8,21.9,0.01,Snow,Light Snow,300,2011-01-08 01:42:00
9:02 PM,28.4,23.0,80,29.34,3.0,WNW,10.4,27.6,N/A,Snow,Light Snow,300,2011-01-08 02:02:00
9:23 PM,28.4,23.0,80,29.34,3.0,WNW,9.2,16.1,N/A,Snow,Light Snow,300,2011-01-08 02:23:00
9:44 PM,26.6,21.2,80,29.34,7.0,NW,8.1,16.1,N/A,Snow,Light Snow,320,2011-01-08 02:44:00
10:02 PM,26.6,21.2,80,29.35,3.0,NW,6.9,-,N/A,Snow,Light Snow,320,2011-01-08 03:02:00
10:22 PM,26.6,21.2,80,29.34,4.0,WNW,11.5,21.9,N/A,Snow,Light Snow,300,2011-01-08 03:22:00
10:42 PM,26.6,21.2,80,29.34,7.0,West,10.4,16.1,N/A,Snow,Light Snow,270,2011-01-08 03:42:00
11:02 PM,26.6,21.2,80,29.33,7.0,West,13.8,21.9,N/A,,Overcast,270,2011-01-08 04:02:00
11:22 PM,26.6,21.2,80,29.32,10.0,WNW,20.7,24.2,N/A,,Overcast,290,2011-01-08 04:22:00
11:42 PM,26.6,19.4,74,29.32,7.0,West,17.3,25.3,N/A,,Overcast,270,2011-01-08 04:42:00